Simultaneous Nadir Overpasses (SNOs) Predictions

Prediction of SNOs between NOAA-19 and TERRA Satellite Orbit:

Table of predicted SNOs for the next 14.0 days since TLE Epoch: 5/7/2022
Index Date (NOAA-19) Time (NOAA-19) Lat,Lon (NOAA-19) SZA (NOAA-19 ) Date (TERRA) Time (TERRA) Lat,Lon (TERRA) SZA (TERRA ) Distance(km) Time Diff (sec)
1 05/09/2022 09:48:40 80.75, 68.50 65.23 05/09/2022 09:49:07 80.75, 68.56 65.24 1.30 27
2 05/09/2022 10:39:41 -80.74,-123.71 114.75 05/09/2022 10:38:34 -80.74,-123.86 114.79 2.83 67
3 05/11/2022 15:21:40 -80.75, 165.40 115.34 05/11/2022 15:22:46 -80.76, 165.25 115.32 2.68 66
4 05/11/2022 16:12:37 80.74, -27.01 64.68 05/11/2022 16:12:12 80.76, -27.09 64.68 2.46 25
5 05/13/2022 21:45:38 -80.76, 69.30 115.91 05/13/2022 21:45:52 -80.74, 69.21 115.93 2.75 14
6 05/16/2022 03:18:34 80.75, 166.28 63.59 05/16/2022 03:19:29 80.77, 166.13 63.61 3.08 55
7 05/16/2022 04:09:35 -80.75, -26.48 116.42 05/16/2022 04:08:57 -80.74, -26.57 116.46 2.46 38
8 05/18/2022 09:42:32 80.76, 70.29 63.08 05/18/2022 09:42:34 80.76, 70.25 63.08 0.81 2
9 05/20/2022 15:15:30 -80.76, 166.97 117.40 05/20/2022 15:16:12 -80.78, 167.04 117.36 2.37 42



Historial Predications of SNOs between NOAA-19 and TERRA
